Theta_e
287 288 290 290 291 292 293 294 294 294 294 294 295 297 297 297 294 293 292 295 304 315 315 315 308 311 315 315 315 315 314 311 310 312 311 312 312 311 311 314 318 321 324 329 334 335 334 334 334 334 334 334 333 331 331 331 331 331 331 331 331 330 329 327 325 324 323 322 322 321 320 319 318 317
286 286 286 286 286 288 289 290 292 293 294 294 294 295 297 298 294 292 290 291 297 304 311 314 312 308 311 313 313 313 314 308 309 312 312 312 313 309 309 311 313 316 320 324 328 333 334 334 333 334 335 335 334 333 332 332 332 332 332 331 331 329 327 325 323 322 322 321 320 320 319 318 317 317
285 285 285 285 285 286 286 287 288 290 291 293 294 295 296 295 294 292 292 289 293 297 297 305 314 314 311 311 312 312 312 311 311 312 312 313 307 306 308 307 310 314 318 320 323 327 332 334 334 334 335 335 335 334 333 333 333 332 331 331 329 326 324 323 321 321 320 320 319 319 318 317 317 317
285 284 284 284 284 285 286 286 286 286 287 289 292 293 293 293 293 293 292 291 290 295 296 300 303 312 317 314 311 312 312 311 305 312 313 313 304 308 311 306 305 309 312 314 316 319 322 329 333 334 334 335 335 335 334 334 332 332 331 329 325 323 321 321 321 320 319 318 317 317 316 316 316 317
284 284 283 284 284 285 285 285 285 285 286 286 287 289 289 288 290 291 291 289 290 294 299 298 299 302 305 312 313 313 313 312 311 309 312 312 312 312 312 313 306 305 307 311 314 315 316 319 326 331 332 333 334 334 334 333 332 329 325 323 322 320 319 320 320 319 318 317 317 316 315 315 315 315
284 283 283 283 283 284 284 284 284 285 285 285 285 285 286 285 287 291 291 290 291 290 294 295 297 298 302 302 312 315 315 314 310 310 311 311 312 313 313 313 314 306 306 308 311 313 313 314 315 318 320 326 328 329 328 324 323 322 320 319 319 317 318 318 318 318 317 316 316 315 315 314 315 315
283 282 282 282 283 284 283 283 283 284 284 285 285 284 285 285 286 288 291 291 289 290 290 294 294 295 297 299 303 310 316 317 316 314 313 312 312 311 313 313 314 308 306 307 308 310 312 312 313 314 315 316 317 318 320 319 318 318 317 317 315 315 315 315 314 315 314 313 313 313 314 314 314 314
282 282 281 282 282 283 282 282 283 283 284 284 284 284 284 285 285 287 289 291 290 290 289 291 292 294 296 297 302 306 312 315 315 315 316 314 312 312 311 312 313 310 307 307 307 308 309 310 312 313 313 314 314 314 315 315 314 315 315 314 313 313 313 312 312 311 311 310 311 311 311 312 313 313
282 281 281 282 282 282 282 282 282 283 283 283 284 283 284 284 285 286 287 288 289 288 288 289 292 293 295 297 299 303 306 311 314 312 312 314 314 312 312 311 311 307 306 305 305 305 306 308 310 311 312 312 312 312 312 312 311 311 311 311 311 311 311 310 309 309 309 309 309 309 309 309 310 311
282 281 281 282 282 282 281 281 282 282 282 283 283 283 283 284 285 285 285 286 286 287 288 288 288 291 291 292 294 298 302 305 308 310 310 308 308 309 309 310 310 310 311 310 308 304 305 305 307 309 310 311 311 310 310 309 308 308 309 309 309 309 308 308 307 307 307 307 307 306 305 305 306 307
281 281 281 281 282 281 282 281 281 282 282 283 282 283 283 284 284 284 284 284 285 286 286 287 288 289 291 292 291 294 299 302 306 308 311 311 309 307 309 309 310 310 311 307 304 305 305 305 307 308 309 309 309 309 308 307 305 305 306 307 307 307 307 306 306 305 305 305 305 304 304 304 303 303
281 281 281 281 282 282 282 282 282 282 282 282 282 282 283 283 283 283 283 283 284 284 285 285 286 287 288 289 291 294 297 298 301 307 309 308 311 310 307 309 311 310 309 309 308 304 303 303 304 305 307 307 308 307 306 304 303 303 305 306 306 306 306 306 305 304 304 303 303 303 303 303 302 301
280 280 280 281 281 283 284 284 284 285 285 283 281 282 283 282 282 282 282 283 283 283 284 284 286 286 286 287 289 290 291 293 295 298 301 302 307 310 308 308 309 310 307 308 309 308 309 308 309 310 311 311 308 307 306 305 302 303 305 306 305 305 305 305 304 303 303 302 302 302 301 301 301 300
279 279 279 281 283 283 283 283 284 284 284 285 284 282 282 282 282 282 282 282 282 283 282 283 284 283 284 285 287 288 290 292 295 295 297 298 303 306 308 310 308 308 308 306 305 308 309 309 310 310 310 312 307 311 309 311 306 304 305 305 305 304 304 304 303 302 302 301 301 301 300 300 300 300
278 278 279 279 280 281 281 281 283 283 283 284 284 284 285 285 283 281 281 281 282 282 282 283 284 284 284 285 287 288 289 291 292 295 298 299 300 301 303 305 303 301 308 306 306 307 306 308 308 308 309 311 309 311 310 306 303 304 304 305 304 303 303 303 303 302 301 301 300 300 300 299 299 299
278 277 278 278 279 279 279 280 280 281 282 282 283 283 283 284 285 285 283 282 282 282 282 282 284 284 284 285 286 286 288 290 293 295 294 294 295 297 299 303 306 303 306 306 306 307 306 306 308 308 308 310 310 310 307 304 304 304 304 304 303 303 303 302 302 301 301 300 299 299 299 298 298 298
277 277 277 277 278 279 281 281 279 278 278 281 282 282 283 283 284 284 285 285 285 285 284 284 284 285 285 285 285 288 290 292 290 290 291 294 297 298 297 298 302 298 303 307 306 307 306 303 304 307 308 309 309 308 304 304 304 304 304 303 303 302 302 301 301 300 300 299 298 298 298 298 297 297
277 277 277 276 276 277 277 277 277 277 277 277 278 278 279 279 281 283 283 284 285 286 285 284 283 285 287 286 287 289 291 290 289 292 292 292 291 291 291 294 295 298 302 306 307 306 304 301 305 305 308 307 307 307 306 304 304 304 303 303 302 302 301 301 300 300 299 298 298 297 297 297 297 297
277 277 277 276 276 276 276 277 278 277 277 277 277 277 278 278 279 280 281 281 282 283 284 284 284 285 287 287 288 289 290 291 292 292 291 290 290 291 292 293 295 298 302 304 307 305 308 299 302 304 307 304 305 306 305 303 303 303 303 302 301 301 301 300 299 299 298 297 297 297 297 296 296 296
276 277 276 276 276 276 276 278 280 280 278 277 277 277 277 278 278 279 283 284 285 284 284 284 285 285 287 288 288 288 289 289 291 291 290 289 289 288 287 287 292 295 301 302 304 305 304 297 302 304 301 300 301 301 301 302 302 303 302 302 301 301 300 299 298 298 297 297 297 297 296 296 295 295
276 276 276 276 276 276 275 279 280 281 281 277 276 276 276 277 277 278 280 283 284 285 285 286 287 288 288 289 290 289 290 289 291 289 286 285 286 285 284 285 288 291 298 299 303 305 305 296 300 301 290 295 297 298 297 300 301 302 302 301 301 300 299 299 298 297 297 296 296 296 296 295 294 294
276 276 278 278 276 276 276 279 280 281 280 277 276 276 276 276 276 277 279 281 282 285 286 286 287 287 288 288 288 288 289 290 289 286 283 284 285 283 284 283 285 288 293 297 302 302 304 299 296 294 287 288 288 291 293 294 298 300 301 301 300 299 298 298 297 297 296 296 296 296 295 295 293 291
275 275 276 278 277 277 278 281 281 282 280 277 277 277 276 276 276 277 279 279 279 280 281 281 282 283 284 285 285 285 287 287 287 286 285 285 283 282 283 284 286 287 289 297 302 300 298 294 294 294 288 289 288 287 290 291 293 296 297 298 299 298 297 297 297 296 296 296 295 295 295 294 292 287
274 275 275 276 279 280 280 281 281 281 282 279 278 277 276 276 276 278 279 279 280 280 280 280 281 281 282 283 283 283 283 284 284 284 284 284 283 283 284 285 286 286 289 295 300 300 300 300 296 295 298 296 292 288 288 289 292 293 294 294 294 294 295 296 296 296 296 295 295 295 294 293 290 286
273 274 274 275 278 279 280 280 281 281 281 281 279 278 277 277 279 280 278 279 281 280 280 280 280 281 281 281 281 282 282 282 283 283 284 284 284 285 285 285 286 287 291 295 297 301 299 294 294 292 293 288 287 286 287 290 291 292 292 293 292 293 293 293 293 293 295 295 295 294 293 292 290 287
273 273 273 274 276 278 279 279 280 280 280 281 278 278 281 282 282 279 279 279 279 279 279 279 279 280 280 280 280 280 280 281 282 282 282 283 283 285 287 287 286 286 288 294 297 300 298 294 295 292 292 291 286 288 286 287 289 290 290 291 292 292 292 291 291 291 292 292 292 292 292 291 289 288
272 273 273 274 276 277 278 278 279 279 280 279 278 280 281 281 281 281 279 279 278 277 277 277 278 278 279 278 279 278 279 279 280 281 281 282 282 284 285 287 289 289 291 295 295 297 298 297 294 294 293 293 290 287 288 287 286 288 288 289 289 290 290 291 290 290 290 290 290 292 292 290 289 288
273 273 273 273 276 277 278 278 279 279 279 278 280 281 281 280 280 278 277 276 275 275 275 274 274 275 276 277 277 277 278 278 279 279 280 281 282 283 284 286 288 289 291 293 295 297 297 297 296 294 297 293 289 287 286 288 287 288 288 288 288 289 289 289 289 289 289 289 288 288 287 286 286 285
273 275 277 277 277 278 278 279 279 278 278 279 279 279 279 277 276 276 275 274 273 272 272 272 272 273 274 275 276 277 278 278 279 279 280 281 281 282 284 285 287 288 289 291 293 295 297 297 297 296 294 294 293 292 291 288 287 287 288 286 285 287 287 288 288 288 288 288 288 287 286 285 284 284
276 277 277 277 277 276 276 274 273 273 273 276 277 278 277 275 275 274 274 273 272 271 272 272 272 273 275 275 276 277 278 277 277 278 279 280 281 282 284 284 285 287 289 291 293 294 296 297 298 297 294 294 294 292 291 289 286 288 287 287 287 287 287 287 287 288 287 287 287 286 286 285 284 283
273 274 274 274 275 276 276 276 275 275 275 274 274 274 274 274 273 273 273 272 272 272 272 273 273 274 276 277 277 277 277 276 277 278 279 279 280 281 281 281 282 285 288 290 292 294 295 296 298 298 294 294 293 294 292 290 288 287 287 288 286 283 285 286 286 287 287 287 286 285 284 283 282 282
273 272 273 274 273 272 272 272 272 272 272 272 273 273 273 273 274 274 275 275 274 274 274 274 275 275 275 275 275 276 276 276 277 279 279 278 278 280 281 281 282 284 286 289 291 291 291 295 297 298 297 295 293 292 291 290 289 288 287 287 287 286 286 285 286 286 286 286 283 281 281 281 280 280
272 271 270 270 270 270 270 270 270 270 271 271 271 272 272 273 273 273 273 273 273 274 274 274 274 274 275 275 276 276 276 277 278 280 279 280 279 280 281 280 282 284 285 287 289 291 291 291 292 296 296 296 296 294 291 288 288 288 287 286 286 285 285 286 285 285 285 283 280 280 279 279 279 279
269 268 268 268 268 268 268 268 268 268 269 269 270 271 272 272 271 272 272 273 273 274 274 274 274 274 275 275 276 276 276 276 277 279 279 280 281 281 282 282 283 285 286 286 288 290 291 291 291 292 292 289 288 291 292 291 288 288 288 287 286 284 285 285 285 284 283 281 279 277 277 276 276 277
267 266 266 266 267 267 267 267 268 268 268 268 268 269 269 270 271 271 271 271 272 272 272 273 274 275 275 275 275 275 275 275 276 277 278 278 279 278 279 279 280 282 283 285 287 289 291 291 290 289 287 288 288 287 286 287 290 288 288 287 286 285 284 284 284 283 282 281 280 277 275 273 273 275
265 265 265 265 265 266 266 266 267 267 267 267 268 268 268 268 269 270 270 271 271 272 272 272 273 273 273 273 274 274 274 275 276 276 277 278 278 279 279 280 282 283 285 286 288 290 291 290 289 288 287 286 287 285 288 287 287 289 287 285 285 284 284 283 282 282 281 280 279 276 273 272 272 273
263 263 262 262 262 263 262 263 263 264 264 264 265 266 267 267 269 270 270 271 270 270 270 271 271 271 272 272 273 274 274 274 274 275 276 277 277 278 278 278 279 280 282 284 287 288 290 290 289 289 288 287 286 285 287 286 286 288 288 286 284 284 283 282 281 280 281 280 279 277 275 273 272 273
260 260 260 260 261 261 262 262 262 262 263 263 263 264 264 264 265 266 267 268 269 270 270 270 270 272 272 272 272 272 273 273 274 273 274 274 274 275 277 278 280 282 284 286 288 289 290 290 289 289 289 287 286 287 285 282 285 287 288 287 284 283 282 280 280 279 279 280 279 278 276 273 273 274
259 258 258 258 259 259 260 260 261 262 263 263 264 264 265 266 266 267 268 269 270 270 270 271 271 271 271 271 272 273 272 272 272 273 274 275 276 276 277 279 279 281 282 283 286 288 289 289 289 289 290 289 288 288 289 284 284 287 288 287 285 283 281 281 280 280 279 278 276 276 276 276 277 279
258 258 258 258 258 259 259 259 259 260 260 260 260 261 261 262 263 263 264 265 265 267 268 270 271 272 272 273 273 273 274 274 274 274 275 276 277 278 278 279 279 279 280 282 284 287 288 289 289 290 291 292 293 292 289 287 287 287 286 286 286 284 282 282 280 279 278 278 275 273 272 274 273 276
258 258 258 259 258 259 259 259 259 260 260 260 261 262 262 262 262 262 263 264 265 266 267 268 269 270 271 272 272 272 272 273 274 275 276 276 277 277 277 279 279 280 280 281 283 286 287 289 290 289 290 287 286 287 286 283 281 282 283 284 285 285 284 284 283 280 278 276 275 273 272 272 273 273
257 257 258 258 258 259 259 259 260 260 261 261 262 262 263 263 264 265 265 266 266 267 267 268 269 270 271 271 272 273 272 272 273 274 275 276 277 278 278 279 278 279 280 279 282 285 289 290 288 287 286 287 288 287 284 284 282 282 283 283 283 284 284 284 283 282 280 278 276 273 273 273 273 272
257 257 257 258 258 258 259 259 259 259 259 260 260 261 261 261 262 261 262 263 264 266 266 268 269 269 270 271 272 272 272 273 274 274 275 275 276 276 277 278 279 280 281 282 284 286 288 286 286 287 287 287 288 289 286 285 284 282 281 280 280 281 282 282 282 281 280 281 280 278 276 274 272 269
256 257 257 257 258 258 259 259 259 260 260 260 260 261 261 261 262 263 264 264 265 266 267 268 269 269 270 271 272 272 273 274 274 275 275 276 277 277 277 277 278 279 280 281 283 285 285 285 287 287 286 286 288 288 286 284 281 280 280 279 279 278 276 278 279 280 280 280 279 279 279 279 279 278
257 257 257 257 258 258 258 259 259 259 260 260 260 260 260 260 260 260 261 261 261 262 262 263 264 265 265 267 268 268 270 273 274 275 276 276 277 277 278 279 279 280 280 282 283 284 284 285 286 286 286 287 287 287 285 283 280 279 278 278 277 277 277 276 275 275 275 275 279 280 280 280 279 280
Wind_Speed
10 10 11 9 9 9 9 9 9 9 9 9 9 8 11 12 13 14 16 18 17 17 4 9 4 5 7 7 7 7 7 9 10 6 7 8 7 11 14 16 16 19 20 23 26 26 26 25 25 24 24 22 21 21 20 20 19 19 19 20 20 20 19 14 12 12 13 14 13 13 12 10 9 7
9 10 10 10 9 9 9 9 9 9 9 9 10 10 10 9 10 8 11 17 13 16 15 6 5 2 5 5 6 6 7 10 11 6 7 7 8 12 14 14 16 17 19 20 22 26 26 25 26 25 25 25 24 23 23 22 21 21 22 22 21 20 15 14 13 15 15 15 14 13 11 10 8 9
9 11 11 10 10 10 11 11 10 10 10 10 10 9 8 8 8 10 8 13 13 8 15 17 14 9 6 5 6 5 6 8 9 7 7 7 11 14 11 14 15 15 17 19 20 21 24 27 26 25 25 25 25 26 26 25 24 24 24 23 20 16 16 13 16 16 16 14 13 12 12 11 10 11
9 10 11 11 10 10 10 10 11 11 11 10 9 10 10 8 7 7 9 11 19 12 12 15 18 21 17 9 7 8 7 7 9 7 7 8 10 7 7 12 15 16 17 18 18 19 19 21 24 25 25 26 27 27 27 27 26 25 24 22 18 16 14 17 17 18 16 15 15 13 12 11 11 12
9 9 11 11 11 11 10 10 11 11 11 12 11 10 10 9 8 9 11 13 18 18 9 13 13 18 20 17 8 10 9 8 7 8 7 6 6 7 7 8 12 15 16 17 18 18 18 19 21 21 22 24 25 27 28 27 26 24 21 18 16 15 18 20 19 18 18 17 17 15 13 12 11 12
9 10 10 11 12 11 11 11 11 11 13 12 12 11 11 11 9 8 10 12 13 20 16 16 16 14 17 18 17 12 12 10 7 8 8 7 7 7 7 7 8 14 16 17 18 18 19 20 20 20 20 19 20 22 23 22 22 20 19 18 17 17 20 20 19 18 18 17 17 16 14 13 11 11
10 11 11 11 10 9 12 12 11 11 11 10 11 12 11 12 11 9 8 11 14 17 18 12 15 14 16 15 16 18 15 13 10 9 9 9 8 7 8 8 7 11 14 16 17 19 19 20 20 20 20 19 15 16 20 19 19 18 17 18 17 20 21 21 19 19 18 17 17 16 15 13 13 13
11 11 12 12 12 11 11 11 10 10 9 10 10 11 10 11 12 10 9 9 12 13 17 16 12 15 13 18 14 13 16 15 12 10 10 7 8 8 8 9 8 10 15 17 18 18 19 19 20 20 20 20 17 14 15 16 16 17 16 15 19 21 22 22 21 19 18 17 16 15 15 13 12 14
10 12 12 13 12 12 13 11 11 10 12 10 9 11 10 10 10 10 10 11 11 13 15 17 12 13 14 12 15 12 13 14 12 11 10 10 10 8 8 6 8 11 15 16 16 16 17 18 19 20 20 19 18 16 15 15 15 16 16 18 19 21 21 21 21 20 18 17 16 16 16 15 13 12
10 11 12 12 12 11 12 13 11 11 12 11 10 11 11 10 10 11 11 10 12 13 15 14 16 13 14 15 14 12 11 14 15 13 10 8 7 7 7 7 7 6 7 7 8 11 13 16 19 20 20 20 20 17 16 16 15 16 18 19 19 20 20 19 19 18 18 17 17 17 17 15 14 12
10 10 10 11 11 11 11 13 12 12 12 11 12 12 12 11 11 12 11 11 12 13 14 15 13 14 13 12 16 15 12 13 12 14 14 12 7 7 9 10 7 7 9 9 12 11 11 13 14 17 21 21 20 18 16 15 16 17 19 20 21 21 21 20 18 18 18 18 18 18 17 16 15 13
10 10 11 10 11 11 11 11 12 11 11 11 12 11 10 12 13 13 12 12 12 12 13 13 15 13 14 13 12 10 11 14 12 6 9 14 13 9 9 10 11 8 7 8 8 10 10 10 12 16 18 20 20 19 16 17 17 19 19 20 20 20 20 19 18 18 19 18 18 17 18 17 16 14
10 11 11 11 10 12 17 19 18 16 16 13 14 14 13 14 14 14 13 12 12 12 12 14 13 14 15 13 12 13 11 9 13 14 12 15 15 13 10 10 10 8 8 8 7 8 9 9 10 10 10 12 16 16 19 15 21 20 20 21 21 21 20 20 20 19 19 18 17 18 18 18 17 15
11 10 11 11 17 20 19 19 19 20 21 21 17 16 14 15 15 15 15 14 12 12 14 14 13 14 16 14 11 12 13 11 12 14 13 14 16 14 14 13 9 9 8 7 8 9 7 9 10 10 12 10 12 10 12 12 14 18 22 22 22 23 22 21 20 20 19 18 18 18 18 18 17 13
11 11 10 11 13 15 16 15 18 21 23 22 24 24 24 20 17 17 17 16 14 14 14 14 14 13 16 16 11 11 13 12 11 12 11 11 13 14 15 15 7 5 9 10 9 10 9 10 11 10 10 11 11 11 12 17 20 21 22 23 24 24 24 24 23 22 21 21 20 19 18 18 16 16
11 11 11 10 9 11 13 14 14 17 20 23 24 26 25 25 26 25 20 18 17 15 15 16 14 13 15 15 12 12 12 12 11 10 11 13 12 14 14 14 14 4 9 9 10 13 8 10 11 11 12 12 12 14 15 21 22 24 26 26 26 26 25 25 24 23 22 23 22 21 19 17 17 18
11 11 10 11 9 9 16 15 14 14 15 19 24 26 27 27 28 27 29 27 20 15 14 15 17 13 14 16 12 7 9 10 14 13 11 10 9 10 13 15 15 8 6 10 11 14 9 10 11 13 12 12 11 13 17 23 25 25 26 26 27 26 25 25 25 24 25 23 22 22 19 20 20 20
13 12 13 12 12 12 12 12 14 14 14 13 14 14 14 14 17 21 26 26 27 23 17 17 19 17 13 13 12 9 9 13 12 12 13 11 13 13 14 17 18 18 8 11 9 12 7 10 11 12 12 10 12 12 17 24 24 25 26 26 26 26 26 27 26 26 25 24 25 23 21 22 22 22
14 14 12 14 15 15 13 12 16 16 14 13 14 13 16 14 13 15 14 13 11 13 14 17 20 19 14 14 16 13 10 13 13 11 13 14 14 15 17 16 17 17 11 13 13 15 11 7 10 13 11 8 11 12 15 22 24 26 28 28 28 28 27 26 26 26 26 26 26 23 23 23 23 22
11 12 13 12 14 15 15 17 26 25 20 17 15 17 16 15 14 15 13 20 19 19 18 17 18 17 16 18 17 16 14 14 15 12 10 11 12 13 14 16 15 14 11 10 12 12 9 7 13 12 6 6 10 8 8 19 27 27 27 29 29 30 28 27 27 26 26 26 23 21 22 22 21 21
11 12 12 13 14 15 16 22 29 30 28 19 18 18 17 16 13 14 13 20 27 29 31 33 34 34 37 35 34 33 31 21 15 11 12 14 10 11 12 15 14 15 11 5 10 11 13 6 10 8 3 8 9 9 10 10 20 25 27 27 29 28 27 28 29 28 25 23 23 24 24 23 21 22
12 14 26 24 17 17 18 26 31 30 26 19 17 16 19 16 16 12 12 11 13 22 28 30 31 31 31 30 31 32 30 22 15 12 15 13 9 11 11 16 15 14 13 11 8 11 15 6 7 6 1 1 2 6 7 6 10 19 22 29 30 29 30 30 29 28 23 24 25 26 26 26 23 16
12 13 16 27 25 23 25 34 33 33 27 19 16 16 16 16 17 14 13 12 11 12 15 17 17 17 17 15 14 13 20 19 17 13 14 13 11 11 14 14 14 16 14 12 11 14 9 5 7 8 3 4 4 2 5 6 7 8 8 12 17 28 31 30 29 28 30 26 26 26 27 29 21 10
12 13 15 18 26 30 31 31 32 30 30 23 17 14 14 14 18 12 15 13 14 16 16 18 15 16 13 13 12 11 11 11 12 13 13 14 13 12 13 14 14 15 15 9 6 12 7 11 9 11 12 10 7 6 7 6 7 7 8 9 10 13 16 21 23 29 29 26 27 28 30 30 19 12
14 15 15 13 20 29 30 30 31 32 32 30 21 16 15 16 19 21 16 14 17 16 16 17 15 13 12 12 10 10 10 10 10 11 12 13 13 13 14 15 15 16 17 15 8 10 10 6 9 8 8 2 1 4 5 7 6 8 9 10 10 10 11 11 9 11 17 24 27 31 31 28 23 16
17 17 17 16 21 30 30 31 32 34 33 34 23 21 30 35 35 26 18 16 13 12 11 12 12 12 11 12 9 9 9 10 9 11 12 13 14 14 14 16 16 16 17 14 12 12 12 9 11 10 10 7 2 4 6 4 6 7 7 8 8 11 13 12 11 13 13 13 15 20 23 30 22 20
19 17 18 19 27 30 31 31 33 33 35 31 25 34 34 34 36 31 17 14 12 11 11 12 13 11 10 10 11 10 11 11 11 11 11 13 15 15 15 17 17 19 19 18 14 10 14 11 8 14 12 12 9 6 7 10 7 7 7 8 9 8 7 10 13 13 12 13 12 22 25 26 22 20
19 19 19 19 30 33 33 35 34 34 34 28 35 37 37 35 31 18 13 11 10 11 12 13 13 12 12 10 12 11 12 11 14 13 12 14 16 16 16 17 18 18 20 20 17 15 15 15 12 12 15 14 11 12 10 3 2 12 14 10 9 10 9 8 9 10 10 11 11 13 12 12 13 14
19 24 34 35 35 35 36 39 38 33 33 37 36 37 36 31 15 11 10 11 9 12 13 13 13 12 12 14 14 14 13 13 11 11 10 12 16 17 18 18 18 18 17 16 16 15 15 15 16 13 13 10 13 14 15 16 16 14 11 13 13 11 11 9 10 12 12 12 13 14 14 14 14 12
37 36 35 39 39 36 32 25 20 18 19 29 34 35 33 17 11 11 10 11 13 14 14 15 15 14 12 13 12 13 12 12 12 11 12 11 13 12 12 13 15 15 17 17 16 16 15 16 16 14 14 13 14 12 10 10 8 10 16 18 13 8 9 13 12 12 14 14 13 12 10 11 13 15
17 23 25 23 29 30 37 38 35 32 31 24 21 16 15 13 13 13 12 11 11 11 13 13 14 11 14 11 11 11 11 12 12 10 12 11 13 11 13 15 16 15 13 14 15 15 15 15 15 16 15 13 13 14 13 14 15 14 12 11 16 19 14 10 10 12 12 11 9 8 8 9 9 8
18 18 21 25 20 16 16 17 13 12 12 15 12 13 13 13 14 17 18 19 16 15 14 14 15 13 12 12 13 11 11 12 11 12 12 12 13 13 10 13 13 14 15 13 12 13 15 15 15 14 16 15 16 12 8 11 15 18 17 16 15 7 13 19 18 15 15 14 13 12 10 11 11 9
19 14 15 13 15 12 13 15 13 14 13 11 14 14 16 12 16 13 13 13 13 14 14 14 15 14 14 14 14 15 14 13 11 11 11 11 14 13 13 17 14 16 15 13 11 10 9 11 13 15 14 15 17 16 14 11 9 12 18 17 14 13 14 12 13 15 16 14 11 12 12 9 8 9
18 17 15 12 13 12 12 12 13 14 10 13 11 12 14 15 12 14 13 14 12 14 12 14 14 16 14 17 13 14 13 13 13 13 15 14 15 16 13 12 12 14 14 15 12 12 9 9 10 10 10 6 2 8 14 17 16 12 11 15 18 16 14 15 14 16 17 17 16 15 11 8 7 6
15 13 17 17 14 13 13 13 15 12 16 13 14 11 13 11 15 16 13 13 13 13 16 15 15 14 15 13 13 12 12 14 13 13 14 14 15 14 14 14 14 16 14 14 14 11 9 9 8 6 4 5 4 1 2 1 11 16 14 12 12 16 17 14 15 14 14 10 10 17 16 11 9 6
17 14 17 16 16 12 13 16 13 14 12 14 12 14 12 14 13 12 14 12 11 13 15 14 16 13 16 15 15 14 15 14 15 14 15 14 14 14 15 16 16 16 12 12 12 11 10 9 9 11 11 9 10 9 11 6 7 13 18 15 12 11 13 15 15 15 15 13 15 14 16 17 13 7
17 15 15 16 17 17 18 17 16 15 15 16 17 15 15 14 10 11 12 14 13 13 11 15 12 15 14 13 11 15 11 14 12 13 13 13 11 12 12 12 14 15 15 15 14 13 11 11 11 13 13 12 13 15 13 4 6 10 13 18 16 17 16 14 15 14 13 15 14 13 15 15 15 8
14 13 12 12 11 12 12 14 12 14 14 13 11 12 15 17 20 20 20 16 16 11 14 12 16 14 16 15 14 11 13 12 13 14 14 14 14 14 15 16 15 15 15 13 13 13 11 12 13 13 13 13 13 13 12 4 6 12 15 14 18 17 16 15 14 15 13 7 11 11 10 9 10 10
12 15 18 16 17 15 16 16 16 16 15 12 13 13 13 12 11 11 13 12 13 13 14 15 13 12 15 11 15 13 14 12 14 11 14 13 15 15 16 16 15 12 12 14 13 13 13 13 14 13 14 14 16 16 15 15 17 14 16 20 17 19 17 20 16 13 16 15 10 9 9 10 13 19
14 14 13 14 12 13 10 13 14 16 18 18 17 18 18 18 18 15 17 15 16 16 15 14 15 15 14 15 14 13 14 16 15 14 14 15 14 15 14 13 12 12 13 15 16 14 14 14 14 14 14 16 15 9 4 4 4 6 10 15 25 25 23 21 18 16 14 16 17 14 13 12 11 11
11 13 13 11 13 12 14 13 13 12 16 13 14 15 17 14 15 16 16 16 15 15 14 15 14 15 12 12 12 12 12 13 12 14 13 15 16 17 18 18 17 16 16 17 16 15 15 13 14 19 16 4 8 12 11 11 13 13 13 13 17 15 16 24 24 22 17 18 19 20 16 17 17 15
14 12 11 12 12 16 12 15 13 13 12 13 10 12 11 13 13 20 21 22 18 14 15 13 14 11 12 11 13 14 14 12 12 13 14 14 14 16 19 16 15 14 14 16 16 15 12 11 11 8 8 10 10 12 13 16 16 16 14 12 10 11 12 7 9 19 24 20 19 17 14 12 14 17
14 14 12 14 11 13 13 14 13 14 13 13 14 14 15 14 16 20 19 19 18 16 14 13 12 11 11 10 13 13 14 14 14 14 13 15 15 15 15 14 14 14 14 14 15 15 13 7 8 11 11 11 12 13 14 15 14 15 14 12 13 12 10 14 14 10 5 10 12 19 23 23 22 18
14 12 15 14 14 15 12 14 13 12 14 14 11 14 13 14 12 11 10 9 11 11 12 13 13 14 14 14 13 13 13 15 14 15 14 15 13 15 14 15 16 14 15 15 16 16 10 9 11 11 12 13 12 12 11 12 12 15 16 16 14 16 16 13 13 14 13 12 15 15 14 13 12 8
12 14 14 14 12 13 12 12 11 13 13 11 14 14 16 15 17 17 14 12 16 17 16 16 15 15 14 15 13 15 15 17 14 14 12 16 14 16 14 15 13 13 14 14 15 14 10 11 10 11 12 13 12 11 11 15 16 13 13 17 18 16 15 15 17 16 11 8 12 16 15 19 26 30
Wind_Direction
357 358 359 357 348 350 352 349 344 341 341 341 337 342 342 336 335 338 330 321 323 311 262 269 292 231 225 225 232 231 226 231 227 217 210 214 226 229 229 232 234 238 240 240 237 231 228 228 227 225 220 213 202 202 202 203 202 205 206 211 216 217 214 205 195 167 166 165 170 179 179 197 208 220
357 353 353 353 350 346 347 346 340 338 338 338 340 340 346 353 349 332 322 308 310 319 326 295 300 301 245 245 245 226 231 233 223 220 216 216 220 227 226 229 232 234 237 239 240 237 232 230 230 228 224 220 211 201 204 204 205 205 210 214 216 217 209 201 175 165 167 169 170 180 191 192 194 212
351 349 349 348 346 346 344 342 341 339 339 336 335 335 344 353 352 332 317 308 299 338 313 322 320 312 291 261 255 251 246 243 222 221 219 223 223 222 226 228 230 230 232 237 238 239 238 233 231 231 228 222 219 210 207 209 210 210 212 214 215 206 201 182 166 168 169 168 177 186 190 195 202 213
349 346 345 343 342 341 339 338 339 337 334 332 330 334 337 343 344 329 315 296 296 313 310 312 317 320 314 286 266 259 256 251 233 230 227 227 226 220 228 229 229 230 231 234 237 239 241 241 237 233 230 225 223 214 209 210 212 213 213 214 209 200 180 162 167 168 167 169 172 180 185 194 207 212
344 343 340 337 335 337 335 335 333 331 332 332 331 331 331 329 339 337 324 316 309 307 317 311 317 318 321 309 275 265 260 258 248 241 244 234 221 223 224 225 226 229 231 231 232 235 238 239 239 238 236 229 224 219 213 210 211 212 212 211 201 188 164 170 172 170 171 170 175 178 180 191 206 212
338 336 333 333 332 334 331 330 329 329 328 329 328 329 329 326 328 335 321 312 306 305 317 319 317 315 319 312 313 293 280 267 252 248 244 238 228 225 226 224 226 221 227 230 230 229 230 232 235 234 236 239 228 219 214 210 208 209 207 199 194 171 172 171 172 172 171 174 178 178 174 184 199 206
331 330 330 328 327 326 325 326 322 322 321 322 322 320 322 318 318 319 311 308 307 307 305 311 309 314 313 305 310 311 299 283 268 253 248 239 234 228 225 227 229 221 224 229 230 230 229 228 229 230 231 233 238 221 213 206 205 206 199 195 176 173 173 173 174 173 172 175 179 175 170 177 191 196
326 324 323 324 323 321 316 315 314 314 313 315 314 314 314 311 310 312 309 301 297 301 302 308 311 307 309 305 305 305 301 291 276 257 254 246 241 233 226 226 229 224 221 225 228 229 229 227 225 227 226 228 227 223 211 201 196 196 196 179 174 175 175 174 174 172 172 176 180 170 161 167 180 189
316 316 315 314 317 317 312 309 311 309 308 309 309 308 307 304 305 305 304 303 298 298 297 300 301 301 298 294 297 304 310 303 287 270 259 245 239 237 235 231 233 235 227 227 229 232 231 229 226 224 224 224 223 219 210 201 193 190 180 177 176 177 176 174 171 170 171 176 175 160 154 155 162 178
306 306 306 306 309 309 307 307 306 305 302 307 304 304 302 300 300 299 300 299 300 295 292 297 302 304 303 306 299 307 311 306 304 294 276 275 265 250 251 234 231 226 227 228 228 230 234 234 230 223 221 221 220 215 207 202 189 180 176 173 173 173 174 172 171 170 170 171 166 156 154 153 157 171
296 294 294 298 299 298 299 299 300 303 304 302 299 299 299 297 295 297 298 299 297 295 296 297 292 296 297 295 301 309 312 296 286 291 297 277 250 241 240 246 231 216 226 223 216 216 214 220 222 226 222 219 216 209 205 194 182 176 173 172 172 173 174 173 172 169 166 166 161 157 154 151 155 166
294 292 291 288 290 290 291 292 296 299 297 298 295 295 294 296 297 296 297 296 293 293 295 292 298 298 296 298 290 290 309 312 308 310 311 301 291 267 242 233 235 226 215 218 217 218 220 227 232 236 230 222 212 204 196 187 179 176 174 172 173 174 174 172 169 165 164 164 161 158 154 153 157 162
291 292 293 290 288 289 292 291 289 288 287 292 292 292 295 296 295 293 293 293 292 290 288 290 292 293 293 292 301 308 309 309 309 316 317 300 296 293 278 255 236 226 210 226 221 217 202 211 211 208 220 222 214 204 192 188 182 177 176 174 173 172 172 171 169 166 165 163 160 157 154 153 154 158
287 285 289 290 293 294 291 288 286 284 284 281 280 288 291 293 291 290 290 288 288 288 287 285 291 290 288 291 298 297 297 302 304 305 308 301 301 301 284 266 242 216 209 212 223 228 205 209 219 206 209 212 201 208 197 192 184 183 178 175 174 174 173 171 168 167 164 162 161 159 156 152 153 146
291 290 284 287 289 289 289 287 284 286 285 285 284 282 279 278 281 289 286 283 284 284 281 282 281 279 282 286 293 291 297 297 298 295 301 304 307 306 302 290 276 228 198 218 226 233 208 196 213 213 215 205 198 204 200 188 182 181 180 178 177 176 173 172 170 167 165 163 163 161 157 154 148 152
290 291 290 286 286 287 286 287 288 285 283 284 284 283 281 277 274 272 275 281 281 277 279 278 271 276 279 287 289 291 292 296 296 296 302 298 294 294 292 289 281 265 207 207 220 239 205 196 210 209 210 205 202 203 194 186 185 184 184 180 178 176 174 171 168 166 167 166 163 158 156 153 154 158
290 291 289 288 281 284 285 286 286 285 285 281 279 279 279 277 274 274 273 270 269 274 268 269 273 264 279 279 278 270 284 296 292 297 284 281 288 300 301 293 298 320 250 227 221 235 210 179 207 221 212 202 200 203 196 192 190 188 184 180 179 177 173 169 168 170 169 166 160 159 156 159 160 162
289 288 289 288 286 285 283 284 284 283 280 279 274 272 270 272 269 267 268 268 267 266 267 270 270 270 263 268 275 271 283 286 282 283 288 306 303 297 286 291 291 288 270 242 241 245 213 190 205 222 220 198 202 204 200 193 191 187 184 182 180 176 174 173 172 170 167 163 161 160 160 161 162 164
284 284 281 281 282 284 282 279 280 282 279 274 270 268 269 266 267 269 263 258 256 258 263 266 268 271 265 265 272 276 273 273 276 284 291 293 292 290 289 284 280 282 255 235 247 248 233 160 199 222 217 190 210 208 202 193 192 190 186 183 179 177 174 173 172 170 167 166 164 161 162 162 163 165
274 276 276 278 279 280 279 279 282 282 282 278 274 273 270 267 265 263 257 263 261 263 265 265 267 269 268 268 268 271 273 277 279 279 283 284 282 288 289 284 290 280 276 216 235 252 252 181 194 222 192 169 215 205 210 201 198 192 189 183 179 177 175 173 169 169 169 166 157 155 159 160 159 160
276 274 271 271 276 277 277 279 281 282 281 278 276 274 272 269 265 263 265 266 268 270 269 268 268 270 272 271 271 274 276 271 272 283 284 275 281 279 287 286 283 280 288 256 221 246 252 200 206 208 156 194 204 207 211 214 207 197 188 184 180 176 173 171 170 168 163 155 154 157 159 159 158 157
276 274 280 280 278 278 277 280 282 282 281 277 272 271 273 273 270 262 262 261 259 259 263 265 268 269 270 270 272 273 274 275 280 276 269 273 277 274 273 277 280 282 275 265 224 240 243 219 200 174 24 29 300 219 223 226 223 208 196 186 181 177 174 172 170 166 156 155 157 158 158 157 154 151
277 277 276 280 279 279 279 281 282 281 280 276 270 270 271 271 272 270 269 264 265 265 266 265 265 264 262 263 263 264 269 271 268 262 267 274 267 266 264 266 280 283 269 254 210 233 244 212 216 165 123 225 257 240 210 204 196 203 208 200 189 179 173 171 168 164 162 157 157 157 158 160 152 145
276 271 273 273 277 280 282 283 283 283 281 278 273 267 266 266 269 270 268 264 266 268 266 269 264 262 261 263 260 262 263 264 260 261 260 261 259 255 259 261 260 265 273 275 166 232 242 229 210 198 193 194 221 199 178 193 193 179 171 176 175 180 175 170 167 165 160 155 155 159 161 160 150 151
285 286 283 282 282 286 286 287 286 286 284 282 278 271 264 263 268 271 271 270 263 267 268 268 266 263 260 258 256 260 264 262 262 260 260 260 257 255 256 260 260 261 263 267 239 226 251 229 232 202 235 291 102 134 186 173 175 173 175 170 163 164 159 162 155 155 154 155 157 162 163 161 155 154
285 283 284 283 283 284 285 285 285 284 284 282 281 276 276 275 275 275 273 272 271 270 271 270 267 266 263 260 258 256 259 259 257 260 263 262 259 253 251 255 261 265 266 273 250 230 245 237 216 203 209 193 229 157 138 182 188 173 159 164 171 170 164 159 157 157 160 164 162 166 166 163 157 157
283 282 281 281 282 284 284 283 281 281 281 281 277 277 276 276 276 277 276 273 268 265 267 270 270 269 266 267 265 261 264 263 257 256 257 263 264 258 255 254 257 261 268 273 271 257 256 252 220 212 206 203 181 163 173 161 180 163 150 158 158 162 172 166 162 160 159 162 162 163 162 159 153 152
282 283 281 280 281 281 281 281 281 279 280 278 278 280 281 282 284 283 280 275 273 275 274 272 271 267 264 261 261 261 261 262 265 264 262 264 266 267 267 263 260 260 262 264 265 256 252 255 246 226 213 190 172 172 180 220 72 174 173 161 151 157 164 167 158 153 157 152 147 154 154 156 155 148
280 280 281 282 283 283 283 284 285 284 282 282 282 282 281 280 274 272 267 269 272 272 270 270 268 264 259 260 262 262 261 264 264 262 261 264 268 267 263 260 257 257 257 257 256 251 248 246 245 230 226 220 201 193 180 179 171 179 170 156 159 171 165 166 165 161 158 156 160 167 171 162 158 159
286 286 285 285 285 285 283 282 277 272 271 273 275 277 279 278 274 272 271 267 268 265 267 267 266 266 265 260 256 260 260 257 258 261 261 260 259 257 264 268 264 258 257 255 252 247 242 240 240 231 222 215 211 202 191 157 175 176 169 171 168 134 159 166 172 166 161 166 166 165 166 163 162 160
281 281 281 279 280 281 282 281 280 279 279 279 277 276 274 271 267 264 261 264 263 264 265 264 262 264 266 269 266 259 263 264 262 253 259 259 261 263 267 269 271 267 253 250 247 241 237 235 236 228 222 215 213 210 185 174 165 166 178 174 156 169 178 161 161 167 164 152 148 152 147 147 154 166
285 283 283 284 282 278 275 273 267 265 264 266 267 266 266 266 264 259 254 255 256 254 256 257 263 262 261 262 260 264 260 262 266 263 259 253 260 252 255 257 256 263 264 254 246 235 230 231 232 230 221 208 211 208 185 185 174 170 174 174 181 168 156 168 171 168 163 155 149 155 161 161 161 160
292 286 284 280 281 270 274 274 273 269 263 260 263 264 268 266 268 269 266 259 251 252 252 251 252 254 255 255 252 253 252 248 252 250 252 248 256 258 248 252 256 259 262 263 256 246 227 234 233 232 221 215 213 193 173 183 199 180 169 171 171 164 173 175 165 161 153 152 155 150 151 159 158 155
295 288 283 275 272 273 269 269 268 269 267 270 264 258 259 264 268 269 269 267 268 267 267 268 268 267 262 255 248 244 247 251 252 251 254 255 248 248 246 253 258 264 266 265 262 258 246 229 232 236 237 240 241 196 188 182 173 184 187 175 166 168 173 167 166 162 165 163 151 148 147 136 146 140
282 283 286 285 279 277 277 271 275 277 280 274 271 266 263 256 256 256 256 260 265 269 270 272 269 269 268 267 266 263 263 266 266 266 261 261 262 263 266 264 259 257 255 259 256 252 245 235 212 206 180 172 172 317 68 155 182 173 169 177 179 164 161 168 162 162 157 152 156 138 115 122 128 149
293 289 289 287 285 286 280 279 276 274 269 269 265 267 264 262 259 257 256 254 253 254 256 256 258 256 256 257 258 256 258 257 256 256 256 252 250 245 239 240 243 249 250 254 258 250 245 230 204 200 197 185 195 185 216 195 175 180 167 169 169 163 164 159 159 158 157 156 158 147 152 158 156 156
297 296 295 293 294 295 293 294 295 295 294 294 293 292 292 288 282 273 268 267 264 263 263 269 271 271 272 271 271 271 271 272 272 272 273 276 278 279 278 278 271 270 265 256 253 255 242 229 211 204 202 197 195 205 201 132 175 190 184 167 164 164 160 158 154 158 169 160 160 166 162 150 149 148
293 292 284 283 280 282 281 281 280 276 276 275 273 274 274 276 275 273 271 264 260 258 255 250 254 256 257 258 258 258 260 257 259 262 266 266 263 260 261 264 259 249 245 248 248 247 238 229 216 208 204 200 199 200 192 156 165 195 196 178 162 161 154 150 154 159 156 154 157 155 139 127 135 138
281 287 287 286 287 288 289 292 294 293 292 288 285 282 281 283 289 294 291 286 273 260 250 247 245 246 252 249 251 250 251 250 252 248 252 252 253 253 253 250 254 263 270 266 258 249 239 229 218 210 207 203 203 200 191 175 194 183 180 178 162 153 162 164 161 149 149 146 137 115 99 100 106 127
276 271 269 273 272 271 267 271 272 274 277 277 278 279 281 282 284 286 286 283 283 282 281 281 275 266 255 255 257 255 254 249 248 248 248 251 255 257 255 253 255 257 260 258 255 247 239 229 217 212 209 210 213 202 148 122 81 129 148 168 178 171 167 165 155 146 155 151 139 127 129 140 133 148
277 276 273 269 273 271 272 268 268 266 269 267 266 269 268 266 268 267 268 268 270 270 268 267 267 268 269 263 260 257 260 260 259 259 257 256 255 256 254 257 256 252 253 256 256 255 243 231 221 216 211 166 114 105 117 122 140 146 165 174 178 188 177 166 160 158 146 150 147 140 139 152 145 142
282 281 280 282 282 284 282 284 282 281 281 284 281 279 275 271 265 270 266 264 262 261 263 264 265 266 267 268 267 265 260 259 260 257 256 256 255 253 249 245 246 245 243 249 250 250 249 234 223 187 133 153 162 165 170 165 167 168 161 147 145 148 159 165 155 151 147 151 144 138 131 125 135 132
283 278 279 279 273 273 272 269 266 265 266 265 266 267 270 271 275 276 274 275 276 276 273 269 263 256 251 248 250 250 254 256 256 259 259 259 258 258 261 259 256 254 253 255 254 254 249 210 167 182 183 182 187 183 180 180 164 153 144 142 142 135 127 115 106 93 59 144 151 155 160 155 152 162
279 281 280 280 278 277 271 273 273 271 272 273 275 277 277 279 278 276 281 282 279 278 281 283 282 279 277 274 275 271 266 262 259 258 256 256 252 253 254 255 256 256 258 260 260 253 233 197 197 185 187 196 191 193 178 154 153 156 153 145 139 132 127 123 103 97 97 66 51 72 75 65 47 86
282 281 281 280 275 272 272 272 269 272 267 261 261 260 261 260 263 267 266 267 268 269 270 271 276 279 282 284 284 281 277 274 272 268 261 262 259 259 257 255 256 259 259 258 259 250 219 205 196 196 194 197 190 189 166 156 153 147 141 142 144 142 140 136 137 142 130 95 76 75 81 95 105 107